Location: *
(40.4000°N, 15.1200°E)
Time: 22:23:46
(UTC+00:00)

Iridium 2 - Pass Details

Date: 09 April 2020
Orbit: 502 x 518 km, 85.5° (Epoch: 25 May)

Event Time Altitude Azimuth Distance (km) Brightness Sun altitude
Exits shadow 19:33:26 63° 35° (NE) 583 3.8 -22.1°
Drops below altitude 10° 19:36:46 10° 7° (N) 1,755 6.7 -22.6°
Sets 19:38:55 0° 6° (N) 2,649 7.7 -22.9°
